TimeAKST,TemperatureF,Dew PointF,Humidity,Sea Level PressureIn,VisibilityMPH,Wind Direction,Wind SpeedMPH,Gust SpeedMPH,PrecipitationIn,Events,Conditions,WindDirDegrees,DateUTC
12:16 AM,35.6,30.2,81,29.49,10.0,West,6.9,-,N/A,,Overcast,270,2013-01-07 09:16:00
12:36 AM,35.6,30.2,81,29.49,10.0,Calm,Calm,-,0.01,,Overcast,0,2013-01-07 09:36:00
12:56 AM,37.4,32.0,81,29.48,10.0,East,6.9,-,0.01,,Overcast,90,2013-01-07 09:56:00
1:16 AM,37.4,33.8,87,29.47,9.0,East,8.1,-,N/A,,Overcast,80,2013-01-07 10:16:00
1:36 AM,37.4,32.0,81,29.46,10.0,East,11.5,-,N/A,,Overcast,90,2013-01-07 10:36:00
1:56 AM,37.4,33.8,87,29.45,10.0,East,11.5,-,N/A,,Overcast,80,2013-01-07 10:56:00
2:16 AM,37.4,33.8,87,29.45,10.0,East,8.1,-,N/A,,Overcast,90,2013-01-07 11:16:00
2:36 AM,37.4,33.8,87,29.44,9.0,East,10.4,-,N/A,,Overcast,90,2013-01-07 11:36:00
2:56 AM,37.4,33.8,87,29.44,10.0,East,10.4,-,N/A,,Overcast,90,2013-01-07 11:56:00
3:16 AM,37.4,33.8,87,29.43,9.0,East,11.5,-,N/A,,Overcast,100,2013-01-07 12:16:00
3:36 AM,37.4,33.8,87,29.43,9.0,East,9.2,-,N/A,,Overcast,100,2013-01-07 12:36:00
3:56 AM,37.4,33.8,87,29.43,10.0,East,10.4,-,0.01,,Overcast,90,2013-01-07 12:56:00
4:16 AM,37.4,33.8,87,29.43,10.0,East,9.2,16.1,N/A,,Overcast,100,2013-01-07 13:16:00
4:36 AM,37.4,33.8,87,29.43,10.0,ESE,9.2,-,N/A,,Overcast,120,2013-01-07 13:36:00
4:56 AM,37.4,33.8,87,29.43,10.0,East,11.5,16.1,N/A,,Overcast,100,2013-01-07 13:56:00
5:16 AM,37.4,33.8,87,29.43,10.0,East,12.7,-,N/A,,Overcast,100,2013-01-07 14:16:00
5:36 AM,37.4,33.8,87,29.43,10.0,East,9.2,-,N/A,,Overcast,100,2013-01-07 14:36:00
5:56 AM,37.4,33.8,87,29.43,10.0,East,8.1,-,N/A,,Overcast,90,2013-01-07 14:56:00
6:16 AM,37.4,33.8,87,29.43,10.0,ESE,8.1,-,N/A,,Overcast,110,2013-01-07 15:16:00
6:36 AM,37.4,33.8,87,29.43,10.0,ENE,5.8,-,N/A,,Overcast,70,2013-01-07 15:36:00
6:56 AM,37.4,33.8,87,29.44,10.0,East,6.9,-,N/A,,Overcast,90,2013-01-07 15:56:00
7:16 AM,37.4,33.8,87,29.45,10.0,East,6.9,-,N/A,,Overcast,90,2013-01-07 16:16:00
7:36 AM,37.4,33.8,87,29.46,10.0,East,6.9,-,N/A,,Overcast,80,2013-01-07 16:36:00
7:56 AM,37.4,33.8,87,29.46,10.0,East,3.5,-,N/A,,Overcast,90,2013-01-07 16:56:00
8:16 AM,37.4,33.8,87,29.48,10.0,Calm,Calm,-,N/A,,Overcast,0,2013-01-07 17:16:00
8:36 AM,37.4,33.8,87,29.49,10.0,WNW,4.6,-,N/A,,Overcast,290,2013-01-07 17:36:00
8:56 AM,37.4,33.8,87,29.51,10.0,NW,5.8,-,N/A,,Overcast,320,2013-01-07 17:56:00
9:16 AM,37.4,33.8,87,29.51,10.0,Calm,Calm,-,N/A,,Overcast,0,2013-01-07 18:16:00
9:36 AM,37.4,33.8,87,29.52,10.0,SE,3.5,-,N/A,,Overcast,130,2013-01-07 18:36:00
9:56 AM,37.4,35.6,93,29.53,10.0,East,8.1,-,N/A,,Overcast,90,2013-01-07 18:56:00
10:16 AM,37.4,35.6,93,29.53,10.0,East,6.9,-,N/A,,Overcast,90,2013-01-07 19:16:00
10:36 AM,37.4,35.6,93,29.54,10.0,East,5.8,-,N/A,,Overcast,90,2013-01-07 19:36:00
10:56 AM,39.2,35.6,87,29.55,10.0,East,4.6,-,N/A,,Overcast,100,2013-01-07 19:56:00
11:16 AM,39.2,35.6,87,29.56,10.0,ENE,4.6,-,N/A,,Overcast,70,2013-01-07 20:16:00
11:36 AM,37.4,32.0,81,29.57,10.0,WNW,4.6,-,N/A,,Overcast,300,2013-01-07 20:36:00
11:56 AM,37.4,33.8,87,29.57,10.0,ESE,4.6,-,N/A,,Overcast,120,2013-01-07 20:56:00
12:16 PM,35.6,32.0,87,29.59,10.0,West,4.6,-,N/A,,Overcast,280,2013-01-07 21:16:00
12:36 PM,35.6,33.8,93,29.59,10.0,Calm,Calm,-,N/A,,Overcast,0,2013-01-07 21:36:00
12:56 PM,37.4,35.6,93,29.59,10.0,SE,4.6,-,N/A,,Overcast,130,2013-01-07 21:56:00
1:16 PM,37.4,35.6,93,29.59,10.0,ESE,6.9,-,N/A,,Overcast,110,2013-01-07 22:16:00
1:36 PM,39.2,35.6,87,29.60,10.0,East,6.9,-,N/A,,Overcast,100,2013-01-07 22:36:00
1:56 PM,39.2,35.6,87,29.61,10.0,East,8.1,-,N/A,,Overcast,80,2013-01-07 22:56:00
2:16 PM,39.2,33.8,81,29.62,10.0,SE,4.6,-,N/A,,Overcast,130,2013-01-07 23:16:00
2:36 PM,37.4,33.8,87,29.63,10.0,Calm,Calm,-,N/A,,Overcast,0,2013-01-07 23:36:00
2:56 PM,37.4,33.8,87,29.63,10.0,Calm,Calm,-,N/A,,Overcast,0,2013-01-07 23:56:00
3:16 PM,39.2,33.8,81,29.64,10.0,Calm,Calm,-,N/A,,Overcast,0,2013-01-08 00:16:00
3:36 PM,39.2,33.8,81,29.65,10.0,SW,5.8,-,N/A,,Overcast,230,2013-01-08 00:36:00
3:56 PM,37.4,30.2,75,29.67,3.0,SW,12.7,-,0.04,,Overcast,220,2013-01-08 00:56:00
4:16 PM,35.6,30.2,81,29.68,3.0,SW,3.5,-,0.01,,Overcast,230,2013-01-08 01:16:00
4:36 PM,37.4,30.2,75,29.68,3.0,Calm,Calm,-,0.01,,Overcast,0,2013-01-08 01:36:00
4:56 PM,37.4,33.8,87,29.69,7.0,East,6.9,-,0.02,,Overcast,80,2013-01-08 01:56:00
5:16 PM,37.4,32.0,81,29.69,7.0,Calm,Calm,-,N/A,,Overcast,0,2013-01-08 02:16:00
5:36 PM,37.4,33.8,87,29.69,7.0,East,4.6,-,N/A,,Overcast,90,2013-01-08 02:36:00
5:56 PM,37.4,32.0,81,29.71,7.0,NNE,3.5,-,0.02,,Overcast,30,2013-01-08 02:56:00
6:16 PM,37.4,30.2,75,29.71,7.0,ENE,4.6,-,N/A,,Overcast,70,2013-01-08 03:16:00
6:36 PM,37.4,32.0,81,29.72,7.0,SSE,4.6,-,N/A,,Overcast,150,2013-01-08 03:36:00
6:56 PM,37.4,32.0,81,29.73,7.0,SSE,8.1,-,N/A,,Overcast,150,2013-01-08 03:56:00
7:16 PM,37.4,32.0,81,29.73,7.0,SSE,3.5,-,N/A,,Overcast,150,2013-01-08 04:16:00
7:36 PM,35.6,32.0,87,29.74,7.0,Calm,Calm,-,N/A,,Overcast,0,2013-01-08 04:36:00
7:56 PM,37.4,30.2,75,29.73,7.0,East,11.5,16.1,N/A,,Overcast,100,2013-01-08 04:56:00
8:16 PM,37.4,33.8,87,29.74,7.0,SSE,6.9,-,N/A,,Overcast,150,2013-01-08 05:16:00
8:36 PM,35.6,32.0,87,29.75,7.0,Calm,Calm,-,N/A,,Overcast,0,2013-01-08 05:36:00
8:56 PM,35.6,30.2,81,29.75,7.0,SW,4.6,-,0.05,,Overcast,220,2013-01-08 05:56:00
9:16 PM,35.6,30.2,81,29.76,7.0,ESE,3.5,-,0.03,,Overcast,120,2013-01-08 06:16:00
9:36 PM,33.8,30.2,87,29.77,7.0,NE,3.5,-,0.06,,Overcast,40,2013-01-08 06:36:00
9:56 PM,33.8,30.2,87,29.77,2.0,SE,3.5,-,0.07,,Overcast,130,2013-01-08 06:56:00
10:16 PM,33.8,30.2,87,29.78,2.0,ESE,3.5,-,N/A,,Overcast,110,2013-01-08 07:16:00
10:36 PM,35.6,30.2,81,29.78,2.0,ESE,4.6,-,0.01,,Overcast,120,2013-01-08 07:36:00
10:56 PM,35.6,30.2,81,29.78,2.0,Calm,Calm,-,0.02,,Overcast,0,2013-01-08 07:56:00
11:16 PM,35.6,30.2,81,29.79,10.0,East,3.5,-,N/A,,Overcast,100,2013-01-08 08:16:00
11:36 PM,35.6,30.2,81,29.79,10.0,SSE,4.6,-,N/A,,Overcast,150,2013-01-08 08:36:00
11:56 PM,35.6,33.8,93,29.80,10.0,SSE,4.6,-,N/A,,Overcast,150,2013-01-08 08:56:00